DW5310 Weather Reports


Display with metric or nautical units.
time (UTC)temp
F
wind
direction
speed
MPH
gust
MPH
rain 1hr
in
rain 24hr
in
rain mn
in
humidity
%
barometer
mb
20260903021505 57 215 2.0 2.0 0.00 0.44 0.44 98 1007.5
20260903021005 57 215 2.0 2.0 0.00 0.44 0.44 98 1007.5
20260903020504 57 215 2.0 2.0 0.00 0.44 0.44 98 1007.5
20260903020004 57 215 2.0 2.0 0.00 0.44 0.44 98 1007.5
20260903015504 57 215 2.0 2.0 0.00 0.44 0.44 98 1006.5
20260903014504 57 215 2.0 2.0 0.00 0.44 0.44 98 1006.5
20260903014004 57 215 2.0 2.0 0.00 0.44 0.44 98 1007.5
20260903013504 57 215 2.0 2.0 0.00 0.44 0.44 98 1007.5
20260903013004 57 215 2.0 2.0 0.00 0.44 0.44 98 1007.5
20260903012505 58 215 2.0 2.0 0.00 0.44 0.44 98 1006.5
20260903012004 58 215 2.0 2.0 0.00 0.44 0.44 98 1006.5
20260903011505 57 215 2.0 2.0 0.00 0.44 0.44 98 1006.5
20260903011004 57 215 2.0 2.0 0.00 0.44 0.44 98 1006.5
20260903010504 57 215 2.0 2.0 0.00 0.44 0.44 98 1006.5
20260903005504 57 215 2.0 2.0 0.00 0.44 0.44 98 1006.5
20260903005005 57 215 2.0 2.0 0.06 0.44 0.44 97 1006.5
20260903004004 57 215 2.0 2.0 0.10 0.44 0.44 97 1006.5
20260903003504 57 215 2.0 2.0 0.10 0.44 0.44 97 1006.5
20260903003004 57 215 2.0 2.0 0.10 0.44 0.44 98 1006.5
20260903002004 57 215 2.0 2.0 0.15 0.44 0.44 97 1006.5
20260903001004 57 215 2.0 2.0 0.15 0.44 0.44 97 1006.5
20260903000504 57 215 2.0 2.0 0.15 0.44 0.44 97 1006.5
20260903000004 57 215 2.0 2.0 0.15 0.44 0.44 97 1006.5
20260902235504 57 215 2.0 2.0 0.15 0.44 0.44 96 1006.5
20260902235004 57 215 2.0 2.0 0.09 0.38 0.38 96 1006.5
20260902234504 57 215 2.0 2.0 0.09 0.38 0.38 96 1006.5
20260902234004 57 215 2.0 2.0 0.05 0.34 0.34 96 1006.5
20260902233004 58 215 2.0 2.0 0.05 0.34 0.34 96 1006.5
20260902232503 58 215 2.0 2.0 0.00 0.29 0.29 96 1006.5
20260902232004 58 215 2.0 2.0 0.00 0.29 0.29 96 1006.5
20260902231004 58 215 2.0 2.0 0.00 0.29 0.29 95 1006.5
20260902230504 58 215 2.0 2.0 0.00 0.29 0.29 95 1006.5
20260902230005 58 215 2.0 2.0 0.00 0.29 0.29 95 1006.5
20260902225504 58 215 2.0 2.0 0.00 0.29 0.29 95 1006.5
20260902225004 58 215 2.0 2.0 0.00 0.29 0.29 94 1006.5
20260902224504 58 215 2.0 2.0 0.00 0.29 0.29 94 1006.5
20260902223504 58 215 2.0 2.0 0.00 0.29 0.29 94 1006.5
20260902223003 58 215 2.0 2.0 0.00 0.29 0.29 95 1006.5
20260902222504 58 215 2.0 2.0 0.00 0.29 0.29 95 1006.5
20260902222004 58 215 2.0 2.0 0.00 0.29 0.29 95 1006.5
20260902221504 58 215 2.0 2.0 0.00 0.29 0.29 94 1006.5
20260902221004 58 215 2.0 2.0 0.00 0.29 0.29 94 1006.5
20260902220504 58 215 2.0 2.0 0.00 0.29 0.29 94 1006.5
20260902220004 58 215 2.0 2.0 0.00 0.29 0.29 94 1006.5
20260902215504 58 215 2.0 2.0 0.00 0.29 0.29 94 1006.5
20260902215004 58 215 2.0 2.0 0.00 0.29 0.29 94 1006.5
20260902214003 58 215 2.0 2.0 0.00 0.29 0.29 94 1006.5
20260902213504 58 215 2.0 2.0 0.00 0.29 0.29 94 1006.5
20260902213003 58 215 2.0 2.0 0.00 0.29 0.29 94 1006.5
20260902212504 58 215 2.0 2.0 0.00 0.29 0.29 94 1006.5
20260902212004 58 215 2.0 2.0 0.05 0.29 0.29 94 1006.5
20260902211504 58 215 2.0 2.0 0.05 0.29 0.29 94 1006.5
20260902211004 58 215 2.0 2.0 0.05 0.29 0.29 94 1006.5
20260902210504 58 215 2.0 2.0 0.05 0.29 0.29 94 1006.5
20260902210004 57 215 2.0 2.0 0.10 0.29 0.29 94 1006.5
20260902205503 57 215 2.0 2.0 0.10 0.29 0.29 93 1006.5
20260902205004 57 215 2.0 2.0 0.10 0.29 0.29 93 1006.5
20260902204504 57 215 2.0 2.0 0.14 0.29 0.29 93 1006.5
20260902204004 57 215 2.0 2.0 0.14 0.29 0.29 93 1006.5
20260902203504 57 215 2.0 2.0 0.20 0.29 0.29 93 1006.5
20260902203004 57 215 2.0 2.0 0.20 0.29 0.29 93 1006.5
20260902202504 57 215 2.0 2.0 0.20 0.29 0.29 93 1005.5
20260902202004 57 215 2.0 2.0 0.15 0.24 0.24 93 1005.5
20260902201507 57 215 2.0 2.0 0.15 0.24 0.24 92 1005.5
20260902201007 57 215 2.0 2.0 0.19 0.24 0.24 92 1006.5
20260902200507 57 215 2.0 2.0 0.19 0.24 0.24 92 1006.5
20260902200006 57 215 2.0 2.0 0.15 0.19 0.19 92 1006.5
20260902195506 57 215 2.0 2.0 0.15 0.19 0.19 91 1006.5
20260902195006 57 215 2.0 2.0 0.15 0.19 0.19 91 1006.5
20260902194507 58 215 2.0 2.0 0.10 0.15 0.15 91 1006.5
20260902193506 58 215 2.0 2.0 0.05 0.09 0.09 90 1006.5
20260902193007 58 215 2.0 2.0 0.05 0.09 0.09 89 1006.5
20260902192507 58 215 2.0 2.0 0.05 0.09 0.09 89 1006.5
20260902192006 58 215 2.0 2.0 0.09 0.09 0.09 89 1006.5
20260902191507 58 215 2.0 2.0 0.09 0.09 0.09 89 1006.5
20260902191007 58 215 2.0 2.0 0.05 0.05 0.05 88 1006.5
20260902190507 58 215 2.0 2.0 0.05 0.05 0.05 88 1006.5
20260902190006 58 215 2.0 2.0 0.05 0.05 0.05 88 1006.5
20260902185507 58 215 2.0 2.0 0.05 0.05 0.05 88 1006.5
20260902185007 58 215 2.0 2.0 0.05 0.05 0.05 88 1006.5
20260902184506 58 215 2.0 2.0 0.05 0.05 0.05 87 1006.5
20260902183506 58 215 2.0 2.0 0.05 0.05 0.05 87 1005.5
20260902183006 58 215 2.0 2.0 0.05 0.05 0.05 86 1005.5
20260902182506 58 215 2.0 2.0 0.05 0.05 0.05 85 1006.5
20260902182007 59 215 2.0 2.0 0.00 0.00 0.00 83 1006.5
20260902181506 59 215 2.0 2.0 0.00 0.00 0.00 82 1006.5
20260902181006 59 215 2.0 2.0 0.00 0.00 0.00 81 1006.5
20260902180506 59 215 2.0 2.0 0.00 0.00 0.00 80 1006.5
20260902180008 60 215 2.0 2.0 0.00 0.00 0.00 79 1006.5
20260902175506 60 215 2.0 2.0 0.00 0.00 0.00 78 1006.5
20260902175007 60 215 2.0 2.0 0.00 0.00 0.00 77 1006.5
20260902174507 61 215 2.0 2.0 0.00 0.00 0.00 76 1006.5
20260902174007 61 215 2.0 2.0 0.00 0.00 0.00 75 1006.5
20260902173507 62 215 2.0 2.0 0.00 0.00 0.00 74 1006.5
20260902173006 62 215 2.0 2.0 0.00 0.00 0.00 73 1006.5
20260902172506 62 215 2.0 2.0 0.00 0.00 0.00 72 1007.5
20260902172007 63 215 2.0 2.0 0.00 0.00 0.00 71 1007.5
20260902171506 63 215 2.0 2.0 0.00 0.00 0.00 70 1007.5
20260902171007 63 215 2.0 2.0 0.00 0.00 0.00 69 1006.5
20260902165507 64 215 2.0 2.0 0.00 0.00 0.00 68 1006.5
20260902165007 63 215 2.0 2.0 0.00 0.00 0.00 68 1006.5
20260902164506 63 215 2.0 2.0 0.00 0.00 0.00 68 1006.5
20260902164007 63 215 2.0 2.0 0.00 0.00 0.00 68 1006.5
20260902163507 63 215 2.0 2.0 0.00 0.00 0.00 69 1006.5
20260902163007 63 215 2.0 2.0 0.00 0.00 0.00 69 1006.5
20260902162507 63 215 2.0 2.0 0.00 0.00 0.00 70 1006.5
20260902162006 63 215 2.0 2.0 0.00 0.00 0.00 70 1006.5
20260902161506 62 215 2.0 2.0 0.00 0.00 0.00 71 1006.5
20260902160506 62 215 2.0 2.0 0.00 0.00 0.00 72 1006.5
20260902155506 61 215 2.0 2.0 0.00 0.00 0.00 72 1006.5
20260902155006 61 215 2.0 2.0 0.00 0.00 0.00 73 1006.5
20260902154506 61 215 2.0 2.0 0.00 0.00 0.00 73 1006.5
20260902154006 61 215 2.0 2.0 0.00 0.00 0.00 73 1005.5
20260902153006 60 215 2.0 2.0 0.00 0.00 0.00 74 1005.5
20260902152506 60 215 2.0 2.0 0.00 0.00 0.00 74 1006.5
20260902152006 60 215 2.0 2.0 0.00 0.00 0.00 74 1006.5
20260902151506 60 215 2.0 2.0 0.00 0.00 0.00 74 1006.5
20260902151006 60 215 2.0 2.0 0.00 0.00 0.00 74 1006.5
20260902150506 60 215 2.0 2.0 0.00 0.00 0.00 74 1006.5
20260902150006 60 215 2.0 2.0 0.00 0.00 0.00 74 1006.5
20260902145507 60 215 2.0 2.0 0.00 0.00 0.00 74 1006.5
20260902145006 60 215 2.0 2.0 0.00 0.00 0.00 75 1006.5
20260902144506 60 215 2.0 2.0 0.00 0.00 0.00 75 1006.5
20260902144006 60 215 2.0 2.0 0.00 0.00 0.00 75 1007.5
20260902143506 60 215 2.0 2.0 0.00 0.00 0.00 75 1007.5
20260902143006 60 215 2.0 2.0 0.00 0.00 0.00 75 1007.5
20260902142506 59 215 2.0 2.0 0.00 0.00 0.00 75 1006.5
20260902141506 59 215 2.0 2.0 0.00 0.00 0.00 75 1006.5
20260902141006 59 215 2.0 2.0 0.00 0.00 0.00 75 1007.5
20260902140505 59 215 2.0 2.0 0.00 0.00 0.00 75 1007.5
20260902135506 59 215 2.0 2.0 0.00 0.00 0.00 74 1008.5
20260902135006 59 215 2.0 2.0 0.00 0.00 0.00 74 1008.5
20260902134506 59 215 2.0 2.0 0.00 0.00 0.00 74 1008.5
20260902134006 59 215 2.0 2.0 0.00 0.00 0.00 74 1008.5
20260902133506 59 215 2.0 2.0 0.00 0.00 0.00 74 1008.5
20260902133006 59 215 2.0 2.0 0.00 0.00 0.00 74 1008.5
20260902132507 59 215 2.0 2.0 0.00 0.00 0.00 74 1008.5
20260902132006 60 215 2.0 2.0 0.00 0.00 0.00 74 1008.5
20260902131506 60 215 2.0 2.0 0.00 0.00 0.00 74 1008.5
20260902131005 60 215 2.0 2.0 0.00 0.00 0.00 74 1008.5
20260902130506 60 215 2.0 2.0 0.00 0.00 0.00 74 1008.5
20260902130006 60 215 2.0 2.0 0.00 0.00 0.00 74 1008.5
20260902125506 60 215 2.0 2.0 0.00 0.00 0.00 74 1008.5
20260902125007 60 215 2.0 2.0 0.00 0.00 0.00 74 1008.5
20260902124006 60 215 2.0 2.0 0.00 0.00 0.00 74 1008.5
20260902123006 60 215 2.0 2.0 0.00 0.00 0.00 74 1008.5
20260902122506 60 215 2.0 2.0 0.00 0.00 0.00 74 1008.5
20260902122006 60 215 2.0 2.0 0.00 0.00 0.00 74 1008.5
20260902121506 60 215 2.0 2.0 0.00 0.00 0.00 75 1008.5
20260902121005 60 215 2.0 2.0 0.00 0.00 0.00 75 1008.5
20260902120505 60 215 2.0 2.0 0.00 0.00 0.00 75 1008.5
20260902120006 60 215 2.0 2.0 0.00 0.00 0.00 75 1008.5
20260902115506 60 215 2.0 2.0 0.00 0.00 0.00 76 1009.5
20260902115006 60 215 2.0 2.0 0.00 0.00 0.00 76 1009.5
20260902114505 60 215 2.0 2.0 0.00 0.00 0.00 77 1009.5
20260902114006 59 215 2.0 2.0 0.00 0.00 0.00 77 1009.5
20260902113506 59 215 2.0 2.0 0.00 0.00 0.00 77 1009.5
20260902113006 59 215 2.0 2.0 0.00 0.00 0.00 78 1009.5
20260902112006 59 215 2.0 2.0 0.00 0.00 0.00 78 1009.5
20260902111506 59 215 2.0 2.0 0.00 0.00 0.00 78 1009.5
20260902110008 59 215 2.0 2.0 0.00 0.00 0.00 79 1009.5
20260902105506 59 215 2.0 2.0 0.00 0.00 0.00 79 1009.5
20260902104506 59 215 2.0 2.0 0.00 0.00 0.00 79 1009.5
20260902104006 59 215 2.0 2.0 0.00 0.00 0.00 79 1009.5
20260902103007 59 215 2.0 2.0 0.00 0.00 0.00 78 1009.5
20260902102505 59 215 2.0 2.0 0.00 0.00 0.00 79 1010.5
20260902102006 59 215 2.0 2.0 0.00 0.00 0.00 79 1010.5
20260902101006 59 215 2.0 2.0 0.00 0.00 0.00 79 1009.5
20260902100505 59 215 2.0 2.0 0.00 0.00 0.00 79 1009.5
20260902100005 59 215 2.0 2.0 0.00 0.00 0.00 79 1009.5
20260902095506 59 215 2.0 2.0 0.00 0.00 0.00 79 1010.5
20260902095006 59 215 2.0 2.0 0.00 0.00 0.00 78 1010.5
20260902094505 59 215 2.0 2.0 0.00 0.00 0.00 78 1010.5
20260902094006 59 215 2.0 2.0 0.00 0.00 0.00 78 1010.5
20260902093505 59 215 2.0 2.0 0.00 0.00 0.00 79 1010.5
20260902093006 59 215 2.0 2.0 0.00 0.00 0.00 79 1010.5
20260902092505 59 215 2.0 2.0 0.00 0.00 0.00 79 1010.5
20260902091005 59 215 2.0 2.0 0.00 0.00 0.00 79 1010.5
20260902085505 59 215 2.0 2.0 0.00 0.00 0.00 79 1010.5
20260902085006 59 215 2.0 2.0 0.00 0.00 0.00 79 1010.5
20260902084506 60 215 2.0 2.0 0.00 0.00 0.00 80 1010.5
20260902084005 60 215 2.0 2.0 0.00 0.00 0.00 80 1011.5
20260902083505 60 215 2.0 2.0 0.00 0.00 0.00 80 1011.5
20260902083005 60 215 2.0 2.0 0.00 0.00 0.00 80 1011.5
20260902082505 60 215 2.0 2.0 0.00 0.00 0.00 80 1010.5
20260902082005 60 215 2.0 2.0 0.00 0.00 0.00 81 1010.5
20260902081505 59 215 2.0 2.0 0.00 0.00 0.00 80 1010.5
20260902081005 59 215 2.0 2.0 0.00 0.00 0.00 79 1010.5
20260902080505 60 215 2.0 2.0 0.00 0.00 0.00 79 1010.5
20260902080005 60 215 2.0 2.0 0.00 0.00 0.00 79 1010.5
20260902075505 60 215 2.0 2.0 0.00 0.00 0.00 79 1010.5
20260902075005 60 215 2.0 2.0 0.00 0.00 0.00 78 1010.5
20260902074505 60 215 2.0 2.0 0.00 0.00 0.00 78 1010.5
20260902074005 60 215 2.0 2.0 0.00 0.00 0.00 79 1010.5
20260902073505 60 215 2.0 2.0 0.00 0.00 0.00 78 1010.5
20260902072505 60 215 2.0 2.0 0.00 0.00 0.00 77 1010.5
20260902071505 61 215 2.0 2.0 0.00 0.00 0.00 77 1010.5
20260902071005 61 215 2.0 2.0 0.00 0.00 0.00 77 1010.5
20260902070506 61 215 2.0 2.0 0.00 0.00 0.00 77 1010.5
20260902065506 61 215 2.0 2.0 0.00 0.00 0.00 77 1010.5
20260902065005 61 215 2.0 2.0 0.00 0.00 0.00 77 1010.5
20260902064505 61 215 2.0 2.0 0.00 0.00 0.00 77 1010.5
20260902064006 61 215 2.0 2.0 0.00 0.00 0.00 77 1010.5
20260902063504 61 215 2.0 2.0 0.00 0.00 0.00 76 1010.5
20260902062505 61 215 2.0 2.0 0.00 0.00 0.00 75 1010.5
20260902062005 61 215 2.0 2.0 0.00 0.00 0.00 75 1010.5
20260902061505 61 215 2.0 2.0 0.00 0.00 0.00 74 1010.5
20260902061004 61 215 2.0 2.0 0.00 0.00 0.00 74 1010.5
20260902060505 61 215 2.0 2.0 0.00 0.00 0.00 73 1010.5
20260902060005 61 215 2.0 2.0 0.00 0.00 0.00 73 1010.5
20260902055506 61 215 2.0 2.0 0.00 0.00 0.00 73 1010.5
20260902055005 61 215 2.0 2.0 0.00 0.00 0.00 73 1010.5
20260902054505 61 215 2.0 2.0 0.00 0.00 0.00 73 1010.5
20260902054005 61 215 2.0 2.0 0.00 0.00 0.00 73 1011.5
20260902053504 62 215 2.0 2.0 0.00 0.00 0.00 73 1011.5
20260902053005 62 215 2.0 2.0 0.00 0.00 0.00 73 1011.5
20260902052505 62 215 2.0 2.0 0.00 0.00 0.00 73 1011.5
20260902052004 62 215 2.0 2.0 0.00 0.00 0.00 73 1011.5
20260902051505 62 215 2.0 2.0 0.00 0.00 0.00 73 1011.5
20260902051005 62 215 2.0 2.0 0.00 0.00 0.00 72 1011.5
20260902050505 62 215 2.0 2.0 0.00 0.00 0.00 73 1011.5
20260902050007 62 215 2.0 2.0 0.00 0.00 0.00 73 1011.5
20260902045005 62 215 2.0 2.0 0.00 0.00 0.00 72 1010.5
20260902044505 62 215 2.0 2.0 0.00 0.00 0.00 72 1010.5
20260902044004 62 215 2.0 2.0 0.00 0.00 0.00 72 1010.5
20260902043505 62 215 2.0 2.0 0.00 0.00 0.00 72 1010.5
20260902043004 62 215 2.0 2.0 0.00 0.00 0.00 72 1010.5
20260902042505 62 215 2.0 2.0 0.00 0.00 0.00 71 1010.5
20260902042005 62 215 2.0 2.0 0.00 0.00 0.00 71 1010.5
20260902041505 62 215 2.0 2.0 0.00 0.00 0.00 71 1010.5
20260902041005 62 215 2.0 2.0 0.00 0.00 0.00 71 1010.5
20260902040505 62 215 2.0 2.0 0.00 0.00 0.00 71 1010.5
20260902035505 62 215 2.0 2.0 0.00 0.00 0.00 71 1010.5
20260902035005 62 215 2.0 2.0 0.00 0.00 0.00 71 1010.5
20260902034505 63 215 2.0 2.0 0.00 0.00 0.00 70 1010.5
20260902034004 63 215 2.0 2.0 0.00 0.00 0.00 70 1010.5
20260902032505 63 215 2.0 2.0 0.00 0.00 0.00 69 1010.5
20260902031005 63 215 2.0 2.0 0.00 0.00 0.00 68 1010.5
20260902030505 63 215 2.0 2.0 0.00 0.00 0.00 68 1010.5
20260902030005 63 215 2.0 2.0 0.00 0.00 0.00 68 1010.5
20260902025505 64 215 2.0 2.0 0.00 0.00 0.00 68 1010.5
20260902024504 64 215 2.0 2.0 0.00 0.00 0.00 67 1010.5
20260902024005 64 215 2.0 2.0 0.00 0.00 0.00 67 1010.5
20260902023504 64 215 2.0 2.0 0.00 0.00 0.00 67 1010.5
20260902023004 64 215 2.0 2.0 0.00 0.00 0.00 66 1010.5
20260902022504 64 215 2.0 2.0 0.00 0.00 0.00 66 1009.5